Flag for Germany Weather past 2 weeks in Iserlohn, North Rhine-Westphalia, Germany

Now
54 °F

Sprinkles. Scattered clouds.


Feels Like: 48 °F
Forecast: 40 / 48 °F
Wind: 20 mph from Southwest

Location: Dortmund / Wickede

Current Time: Oct 21, 2014 at 2:41:05 PM

Latest Report: Oct 21, 2014 at 1:50 PM


Visibility: N/A

Pressure: 29.59 "Hg

Humidity: 77%

Dew point: 46 °F

Location of IserlohnLocation

Historic Weather in Iserlohn — Graph

°F

Iserlohn temperature yesterday

Maximum temperature yesterday: 61 °F (at 1:50 PM)
Minimum temperature yesterday: 54 °F (at 10:20 PM)
Average temperature yesterday: 57 °F

Past Weeks' High & Low Weather Summary

 TemperatureHumidityPressure
High73 °F (Oct 19, 2:20 PM)94% (Oct 11, 7:50 AM)30.12 "Hg (Oct 11, 7:50 AM)
Low48 °F (Oct 12, 7:50 AM)49% (Oct 10, 2:50 PM)29.53 "Hg (Oct 7, 9:20 AM)
Average58 °F75%29.83 "Hg
* Reported Oct 6 1:20 PM — Oct 21 1:20 PM, Iserlohn, Weather by CustomWeather, © 2014

Note: Actual official high and low records may vary slightly from our data, if they occured in-between our weather recording intervals... More about our weather records

Advertising

Iserlohn weather history for previous 24 hours

 ConditionsComfort  
Time TempWeatherWind HumidityBarometerVisibility
1:20 PM
Oct 21
54 °FSprinkles. Partly sunny.20 mph77%29.62 "HgN/A
12:50 PM55 °FPartly sunny.20 mph72%29.65 "HgN/A
12:20 PM55 °FScattered clouds.21 mph72%29.65 "HgN/A
11:50 AM54 °FPartly sunny.20 mph77%29.68 "HgN/A
11:20 AM55 °FScattered clouds.20 mph67%29.68 "HgN/A
10:50 AM54 °FSunny.16 mph77%29.71 "Hg10 mi
10:20 AM54 °FPartly sunny.16 mph77%29.74 "HgN/A
9:50 AM54 °FSunny.16 mph77%29.74 "Hg10 mi
9:20 AM54 °FPartly sunny.15 mph77%29.77 "HgN/A
8:50 AM54 °FPassing clouds.13 mph77%29.77 "HgN/A
8:20 AM54 °FScattered showers. Passing clouds.12 mph82%29.77 "HgN/A
7:50 AM54 °FPassing clouds.12 mph82%29.80 "HgN/A
7:20 AM54 °FPassing clouds.14 mph82%29.80 "HgN/A
6:50 AM52 °FPassing clouds.12 mph88%29.80 "HgN/A
6:20 AM52 °FClear.13 mph82%29.83 "Hg10 mi
5:50 AM52 °FPassing clouds.13 mph82%29.83 "HgN/A
5:20 AM52 °FPassing clouds.13 mph82%29.86 "HgN/A
10:50 PM
Oct 20
54 °FPassing clouds.10 mph88%29.95 "HgN/A
10:20 PM54 °FPassing clouds.8 mph88%29.95 "HgN/A
9:50 PM55 °FPassing clouds.10 mph82%29.95 "HgN/A
9:20 PM55 °FSprinkles. Partly cloudy.8 mph82%29.95 "HgN/A
8:50 PM55 °FPassing clouds.13 mph77%29.95 "HgN/A
8:20 PM55 °FClear.10 mph77%29.95 "Hg10 mi
7:50 PM55 °FPassing clouds.10 mph77%29.98 "HgN/A
7:20 PM55 °FSunny.9 mph77%29.98 "Hg10 mi
6:50 PM55 °FSunny.9 mph77%29.98 "Hg10 mi
6:20 PM57 °FSunny.10 mph72%29.98 "Hg10 mi
5:50 PM57 °FSunny.15 mph72%29.98 "Hg10 mi
5:20 PM59 °FPassing clouds.17 mph68%29.98 "HgN/A
4:50 PM59 °FScattered clouds.17 mph68%29.98 "HgN/A
4:20 PM61 °FScattered clouds.17 mph63%29.98 "HgN/A
3:50 PM59 °FScattered clouds.15 mph68%30.01 "HgN/A
3:20 PM59 °FSunny.17 mph68%30.01 "Hg10 mi
2:50 PM59 °FScattered clouds.20 mph68%30.01 "HgN/A
2:20 PM61 °FPartly sunny.16 mph68%30.01 "HgN/A
Weather by CustomWeather, © 2014

See weather overviewHow to use our weather pages